622 
ASUS46 KSEW 301010
RWRWA 

WASHINGTON REGIONAL WEATHER ROUNDUP
NATIONAL WEATHER SERVICE SEATTLE WA
200 AM PST FRI JAN 30 2015

NOTE:"FAIR" INDICATES FEW OR NO CLOUDS BELOW 12,000 FEET WITH NO 
SIGNIFICANT WEATHER AND/OR OBSTRUCTIONS TO VISIBILITY.

WAZ505-507>509-301100-
SEATTLE, TACOMA, EVERETT, AND VICINITY
  
CITY           SKY/WX    TMP DP  RH WIND       PRES   REMARKS
EVERETT        FOG       40  39  97 N5        30.31R VSB 1/4          
BOEING FIELD   CLEAR     41  35  79 CALM      30.32R                  
RENTON         CLEAR     36  35  96 CALM      30.32R                  
SEATAC AIRPORT CLEAR     38  35  89 N5        30.31R                  
JBLM-MCCHORD   MOCLDY    32  32 100 SW2       30.31R                  
PUYALLUP       FAIR      32  32 100 CALM      30.30R FOG              
BREMERTON        N/A     30  28  93 CALM      30.33R                  
JBLM-FT LEWIS  CLEAR     32  31  99 SE3       30.30R FOG              
TACOMA NARROWS CLEAR     38  35  89 CALM      30.32R FOG              
$$
 
WAZ001-503-506-510-514-515-301100-
NORTH INTERIOR
  
CITY           SKY/WX    TMP DP  RH WIND       PRES   REMARKS
BELLINGHAM     PTCLDY    36  32  85 N3        30.33R                  
FRIDAY HARBOR  PTCLDY    41  39  93 CALM      30.34R                  
EASTSOUND      MOCLDY    45  43  93 CALM      30.32S                  
PORT ANGELES   PTCLDY    34  32  92 CALM      30.33R                  
NAS WHIDBEY    PTCLDY    37  34  89 SE5       30.33S                  
ARLINGTON      CLOUDY    32  28  86 CALM      30.33S VSB 1/4          
BURLINGTON     CLEAR     34 N/A N/A CALM      30.34R                  
$$
 
WAZ020-022-039-040-504-511-512-301100-
SOUTHWEST INTERIOR
  
CITY           SKY/WX    TMP DP  RH WIND       PRES   REMARKS
SHELTON        CLOUDY    30  29  96 CALM      30.30R FOG              
OLYMPIA        FOG       31  30  96 CALM      30.31S VSB 1/2          
CHEHALIS       FOG       37  37 100 CALM      30.32R VSB<1/4          
KELSO          CLOUDY    39  37  93 CALM      30.34R VSB 1/4          
VANCOUVER      CLEAR     35  32  88 CALM      30.30R                  
SCAPPOOSE, OR  FOG       33  32  96 CALM      30.29S VSB 1/2          
PORTLAND, OR   CLEAR     37  35  92 CALM      30.30S                  
$$
 
WAZ021-516-517-301100-
WASHINGTON COAST
  
CITY           SKY/WX    TMP DP  RH WIND       PRES   REMARKS
FORKS          CLEAR     34  34 100 CALM      30.30F                  
HOQUIAM        CLEAR     39  37  92 NE6       30.29S                  
ASTORIA, OR    CLEAR     39  36  89 CALM      30.27R                  
$$
 
WAZ019-023-024-040-518-519-301100-
CASCADE MOUNTAINS AND COLUMBIA GORGE
  
CITY           SKY/WX    TMP DP  RH WIND       PRES   REMARKS
TROUTDALE, OR  CLEAR     43  33  68 E21G30    30.27S                  
THE DALLES, OR CLOUDY    40  36  86 E5        30.45S                  
$$

WAZ026-027-041>044-520-521-301100-
EAST SLOPES
  
CITY           SKY/WX    TMP DP  RH WIND       PRES   REMARKS
OMAK           CLOUDY    34  31  88 N5        30.42S                  
WENATCHEE      CLOUDY    35  31  85 NW7       30.42F                  
ELLENSBURG     CLOUDY    34  31  88 W5        30.39S FOG              
YAKIMA         CLOUDY    38  32  79 CALM      30.42S                  
$$

WAZ028-034-035-301100-
COLUMBIA BASIN
  
CITY           SKY/WX    TMP DP  RH WIND       PRES   REMARKS
EPHRATA        CLOUDY    37  35  92 CALM      30.40S                  
MOSES LAKE     CLOUDY    36  35  96 CALM      30.42R                  
PASCO          CLOUDY    38  37  97 CALM      30.45S                  
HERMISTON, OR  CLOUDY    37  36  96 CALM      30.43F FOG              
$$

WAZ036>038-301100-
NORTHEAST WASHINGTON
  
CITY           SKY/WX    TMP DP  RH WIND       PRES   REMARKS
SPOKANE GEIGER FOG       28  26  92 CALM      30.35F VSB 1/4          
SPOKANE FELTS  CLOUDY    30  28  92 CALM      30.38F FOG              
FAIRCHILD AFB  FOG       28  28 100 E3        30.35S VSB 1/2          
COEURDALENE,ID CLOUDY    30  28  93 NE9       30.35F                  
DEER PARK      FOG       22  21  96 SE5       30.37S VSB 1/4          
$$

WAZ029>033-301100-
SOUTHEAST WASHINGTON
  
CITY           SKY/WX    TMP DP  RH WIND       PRES   REMARKS
PULLMAN        FOG       31  31 100 CALM      30.36S VSB 1/2          
LEWISTON, ID   CLOUDY    38  35  89 CALM      30.38S                  
WALLA WALLA    CLOUDY    36  33  89 S5        30.41S                  
PENDLETON, OR  CLOUDY    34  33  96 SE3       30.39S FOG              
$$